INSAT-3DR

Last updated on Sat Aug 22 2026 00:02:40 GMT+0000 (Coordinated Universal Time)

1 41752U 16054A 26233.49690795 -.00000079 00000+0 00000+0 0 9995 2 41752 0.0627 94.8424 0010789 170.7548 317.1086 1.00272429 36477
UTC large
Height (km)
Speed (km/s)
/
Latitude / Longitude
Inclination (degrees)
Orbital Period (minutes)
Azimuth
Elevation
Range (km)
Doppler Factor

Next 0 passes for location: London (51.5072 / 0.1276)

No passes found over London.
INSAT-3DR